Location: Pedholt
(56.0260°N, 10.2097°E)
Time: 02:58:19
(UTC+00:00)

SR - Pass Details

Date: 28 July 2021
Orbit: 581 x 873 km, 66.7° (Epoch: 27 September)

Event Time Altitude Azimuth Distance (km) Brightness Sun altitude
Rises 05:25:32 0° 170° (S) 3,435 ? 15.6°
Reaches altitude 10° 05:28:41 10° 154° (SSE) 2,478 ? 16.0°
Maximum altitude 05:32:39 20° 110° (ESE) 1,851 ? 16.6°
Drops below altitude 10° 05:36:30 10° 66° (ENE) 2,387 ? 17.1°
Sets 05:39:27 0° 49° (NE) 3,269 ? 17.5°
